This is the latest recevied weather packets stored in our database for station/object WY7EM. If no packets are shown the sender has not sent any weather packets the latest 10 day(s).
| Time | Temp. | Humidity | Pressure | Rain* | Wind** | Luminosity | Snow |
|---|---|---|---|---|---|---|---|
| 1778254343 | 20.56° C | 21% | 1015.8 hPa | 0 mm | - | 405 W/m² | - |
| 1778254040 | 20° C | 21% | 1015.6 hPa | 0 mm | - | 384 W/m² | - |
| 1778253735 | 20° C | 21% | 1016 hPa | 0 mm | - | 367 W/m² | - |
| 1778253432 | 20° C | 21% | 1015.8 hPa | 0 mm | - | 345 W/m² | - |
| 1778253129 | 20° C | 21% | 1016 hPa | 0 mm | - | 331 W/m² | - |
| 1778252826 | 20° C | 21% | 1015.8 hPa | 0 mm | - | 312 W/m² | - |
| 1778252522 | 20° C | 21% | 1015.7 hPa | 0 mm | - | 293 W/m² | - |
| 1778252218 | 19.44° C | 21% | 1016 hPa | 0 mm | - | 273 W/m² | - |
| 1778251914 | 19.44° C | 22% | 1016.1 hPa | 0 mm | - | 256 W/m² | - |
| 1778251310 | 18.89° C | 22% | 1015.8 hPa | 0 mm | - | 220 W/m² | - |
| 1778251007 | 17.78° C | 23% | 1015.8 hPa | 0 mm | - | 205 W/m² | - |
| 1778250704 | 17.78° C | 24% | 1015.8 hPa | 0 mm | - | 53 W/m² | - |
| 1778250400 | 17.78° C | 23% | 1015.8 hPa | 0 mm | - | 79 W/m² | - |
| 1778250097 | 17.78° C | 24% | 1015.8 hPa | 0 mm | - | 46 W/m² | - |
| 1778249793 | 17.22° C | 23% | 1015.8 hPa | 0 mm | - | 44 W/m² | - |
| 1778249491 | 17.22° C | 23% | 1015.7 hPa | 0 mm | - | 44 W/m² | - |
| 1778249188 | 17.22° C | 23% | 1016 hPa | 0 mm | - | 42 W/m² | - |
| 1778248885 | 17.22° C | 23% | 1015.7 hPa | 0 mm | - | 40 W/m² | - |
| 1778248580 | 17.22° C | 24% | 1015.6 hPa | 0 mm | - | 39 W/m² | - |
| 1778248277 | 17.22° C | 24% | 1015.8 hPa | 0 mm | - | 38 W/m² | - |
| 1778247974 | 16.67° C | 24% | 1015.7 hPa | 0 mm | - | 37 W/m² | - |
| 1778247671 | 16.67° C | 25% | 1015.7 hPa | 0 mm | - | 36 W/m² | - |
| 1778247367 | 16.67° C | 24% | 1015.6 hPa | 0 mm | - | 35 W/m² | - |
| 1778247065 | 16.67° C | 25% | 1015.4 hPa | 0 mm | - | 33 W/m² | - |
| 1778246762 | 16.67° C | 25% | 1015.5 hPa | 0 mm | - | 32 W/m² | - |
* Rain latest hour (hover to see other rain measurements)
** Current wind speed in m/s (hover to see current wind gust speed)